Kosmos-2361

operational
NORAD ID: 25590 Int'l Des: 1998-076 Owner: VMFR Country: RU
LEOCIRCULARPOLAR

Kosmos-2361について

説明を読み込み中...

リアルタイム位置

3D地球を読み込み中...

次回通過

高度履歴

Altitude vs Time

uPlot chart will show altitude changes over time

軌道要素

1 25590U 98076A 26062.13260028 .00000085 00000-0 75508-4 0 9991
2 25590 82.9314 284.6408 0032404 43.8998 73.2940 13.73226729362149
Epoch: Mar 3, 2026 • Age: 28 hours

現在のステータス

高度 1034.8 km
速度 7.32 km/s
衛星直下点 -68.80°S, 104.18°W
打ち上げ日 Dec 24, 1998
運用期間 27.1 years
タイプ other

技術仕様

分類 Payload
質量 800.00 kg
乾燥質量 800.00 kg
総質量 800.00 kg
長さ 5.00 m
直径 2.10 m
スパン 17.00 m
形状 Cyl + Ant
製造者 POL
バスタイプ KAUR-1 11F627
フェーズステータス Unknown Transfer Status
所有者/国 VMFR/RU

大規模コンステレーション

Loading constellations...